Regional Weather Roundup
Issued by NWS

Home | Current Version | Previous Version | Graphics & Text | Print | Product List | Glossary On
Versions: 1 2 3 4 5 6 7 8 9 10 11 12 13 14 15 16 17 18 19 20 21 22 23 24 25 26 27 28 29 30 31 32 33 34 35 36 37 38 39 40 41 42 43 44 45 46 47 48 49 50
000
ASUS43 KDTX 251401
RWRMI
MICHIGAN HOURLY REGIONAL WEATHER ROUNDUP
NATIONAL WEATHER SERVICE DETROIT/PONTIAC MI
900 AM EST TUE NOV 25 2014

NOTE: "FAIR" INDICATES FEW OR NO CLOUDS BELOW 12,000 FEET WITH NO
SIGNIFICANT WEATHER AND/OR OBSTRUCTION TO VISIBILITY.

MIZ047>049-052>055-059>063-066>070-074>076-081>083-251500-
SOUTHEAST LOWER MICHIGAN

CITY           SKY/WX    TMP DP  RH WIND       PRES   REMARKS
ADRIAN         CLOUDY    30  24  78 W15G21    29.94R WCI  19
ALMA           LGT SNOW  29  28  93 W7        29.87R WCI  22
ANN ARBOR      FLURRIES  30  22  72 W17G26    29.92R WCI  18
BAD AXE        CLOUDY    30  28  92 SW13G25   29.82R FOG     WCI  20
CARO           CLOUDY    30  27  86 SW16G24   29.84R WCI  19
DETROIT CITY   CLOUDY    33  24  69 W16G25    29.91R WCI  23
DETROIT        CLOUDY    31  23  72 SW20G28   29.93R WCI  19
FLINT          CLOUDY    31  25  78 W15G24    29.88R WCI  20
GROSSE ILE     CLOUDY    32  25  74 SW16G23   29.92R WCI  21
HILLSDALE      CLOUDY    29  26  88 W12G18    29.92R WCI  19
HOWELL         CLOUDY    29  24  80 SW14G22   29.89R WCI  18

CITY           SKY/WX    TMP DP  RH WIND       PRES   REMARKS
JACKSON        CLOUDY    28  23  81 W15G22    29.92R WCI  16
LAMBERTVILLE   CLOUDY    34  27  75 W8G18     29.95R WCI  27
LANSING        LGTSLEET  29  23  78 SW17      29.90R WCI  17
LAPEER         MIX PCPN  30  27  88 W15G24    29.86R WCI  19
MASON          FLURRIES  29  24  80 W10G16    29.90R WCI  20
MONROE         CLOUDY    32  27  80 W15G26    29.92R WCI  22
MT. CLEMENS    FLURRIES  32  26  80 SW13G22   29.87R WCI  22
PONTIAC        FLURRIES  29  23  78 W18       29.87R WCI  16
PORT HOPE        N/A     32  25  75 SW13G22   29.78R WCI  22
PORT HURON     CLOUDY    32  25  74 SW8G20    29.88R WCI  25
TRI CITIES     CLOUDY    31  26  82 SW10      29.85R WCI  22
TROY           CLOUDY    32  25  76 W16G25    29.91R WCI  21
SAGINAW HB     CLOUDY    32  30  93 SW14G22   29.85R WCI  22
$$
MIZ043>046-050>051-056>058-064>065-071>073-077>080-251500-
SOUTHWEST LOWER MICHIGAN

CITY           SKY/WX    TMP DP  RH WIND       PRES   REMARKS
BATTLE CREEK   FLURRIES  29  21  72 W18G25    29.93R WCI  16
BENTON HARBOR  CLOUDY    27  22  81 W17G25    29.98R WCI  14
BIG RAPIDS     LGT SNOW  28  27  96 W10G16    29.83R WCI  19
COLDWATER      CLOUDY    30  24  80 W16       29.95R WCI  18
FREMONT        LGT SNOW  28  27  95 W5        29.88R WCI  23
HOLLAND        FLURRIES  31  25  78 W15G24    29.93R WCI  20
GRAND RAPIDS   LGT SNOW  29  25  85 SW13      29.90R FOG     WCI  19
IONIA          LGT SNOW  30  28  92 SW14G22   29.88R WCI  19
KALAMAZOO      CLOUDY    28  21  75 SW12      29.95R WCI  18
LUDINGTON      LGT SNOW  29  27  92 NW10G17   29.88R WCI  20
MARSHALL       CLOUDY    27  21  78 SW15G23   29.93R WCI  15
MOUNT PLEASANT FLURRIES  30  26  84 SW12      29.84R WCI  20
MUSKEGON       LGT SNOW  31  22  69 W14       29.91R WCI  21
SOUTH HAVEN    CLOUDY    30  24  79 W10G20    29.96R WCI  21
$$
MIZ016>042-251500-
NORTHERN LOWER MICHIGAN

CITY           SKY/WX    TMP DP  RH WIND       PRES   REMARKS
ALPENA         LGT SNOW  28  25  88 W10       29.71R FOG     WCI  19
BEAVER ISLAND  LGT SNOW  28  26  89 NW10G16   29.77R WCI  19
BELLAIRE       LGT SNOW  30  26  85 W5G17     29.79R WCI  25
CADILLAC       LGT SNOW  27  24  89 W6        29.78R WCI  20
CHARLEVOIX     LGT SNOW  28  26  93 NW15      29.80R WCI  16
FRANKFORT      LGT SNOW  29  26  90 NW10      29.84R WCI  20
GAYLORD        LGT SNOW  26  23  88 W13G22    29.71R FOG     WCI  15
GRAYLING       LGT SNOW  28  27  94 W7        29.75R WCI  21
HARBOR SPRINGS LGT SNOW  27  24  91 W6        29.75R WCI  20
HOUGHTON LAKE  CLOUDY    28  24  85 W16G23    29.77R WCI  16
MANISTEE       CLOUDY    28  25  86 NW14G20   29.86R WCI  17
OSCODA         MOSUNNY   30  28  90 SW17      29.75R WCI  18
PELLSTON       SNOW      26  24  92 NW14      29.74R VSB 1/2 WCI  14
ROGERS CITY    LGT SNOW  28  27  98 W9G16     29.72R WCI  19
TRAVERSE CITY  LGT SNOW  29  25  85 W14       29.80R FOG     WCI  18
$$
MIZ007>008-015-251500-
EASTERN UPPER MICHIGAN

CITY           SKY/WX    TMP DP  RH WIND       PRES   REMARKS
KINROSS        CLOUDY    23  23 100 N8        29.71R VSB 3/4 WCI  14
MACKINAC ISLAN LGT SNOW  26  25  96 NW8G16    29.72R WCI  17
NEWBERRY       LGT SNOW  24  22  93 NW7       29.74R VSB 1   WCI  16
S. S. MARIE    LGT SNOW  23  18  81 NW7       29.70R WCI  15
MUNISING         N/A     30  23  75 N13       29.79R WCI  20
$$
MIZ004>006-011>014-085-251500-
CENTRAL UPPER MICHIGAN

CITY           SKY/WX    TMP DP  RH WIND       PRES   REMARKS
MANISTIQUE     SNOW      26  24  93 W5        29.78R VSB 1/2 WCI  20
ESCANABA       CLOUDY    25  18  74 W13       29.83R WCI  13
MENOMINEE      CLOUDY    25  19  80 NW7       29.88R WCI  17
SAWYER-GWINN   LGT SNOW  21  18  86 NW14      29.79R WCI   8
$$
MIZ001>003-009>011-084-251500-
WESTERN UPPER MICHIGAN

CITY           SKY/WX    TMP DP  RH WIND       PRES   REMARKS
IRON MOUNTAIN  MIX PCPN  22  14  71 NW12      29.84R WCI  10
HOUGHTON       LGT SNOW  20  14  77 NW13      29.84R WCI   7
COPPER HARBOR    N/A     25  17  72 N18G28    29.84R WCI  11
IRONWOOD       CLOUDY    16  10  79 W10       29.87R WCI   3
$$

ABBREVIATIONS USED IN REMARKS
   TC - TEMPERATURE IN CELSIUS
  WCI - WIND CHILL INDEX
   HX - HEAT INDEX
  VSB - VISIBILITY




USA.gov is the U.S. government's official web portal to all federal, state and local government web resources and services.